Regional Weather Roundup
Issued by NWS

Home | Current Version | Previous Version | Graphics & Text | Print | Product List | Glossary Off
Versions: 1 2 3 4 5 6 7 8 9 10 11 12 13 14 15 16 17 18 19 20 21 22 23 24 25 26 27 28 29 30 31 32 33 34 35 36 37 38 39 40 41 42 43 44 45 46 47 48 49 50

000
ASUS43 KMPX 241501
RWRMN
WEATHER ROUNDUP FOR MINNESOTA
NATIONAL WEATHER SERVICE TWIN CITIES/CHANHASSEN MN
1000 AM CDT TUE APR 24 2018


NOTE: "FAIR" INDICATES FEW OR NO CLOUDS BELOW 12,000 FEET WITH NO
SIGNIFICANT WEATHER AND/OR OBSTRUCTIONS TO VISIBILITY. N/A MEANS
CURRENT SKY AND/OR WEATHER CONDITIONS ARE NOT AVAILABLE.

MNZ060>063-068>070-241600-
   Twin Cities Metro

CITY           SKY/WX    TMP DP  RH WIND       PRES   REMARKS
TWIN CITIES    FAIR      62  42  47 NW8       30.14R
ST PAUL        FAIR      61  40  45 N9        30.14R
CRYSTAL        FAIR      56  36  47 N9        30.15R
BLAINE         PTSUNNY   57  37  47 N9        30.15R
LAKEVILLE      FAIR      59  43  55 CALM      30.13S
EDEN PRAIRIE   FAIR      59  41  51 NW9       30.14R
SOUTH ST PAUL  FAIR      62  40  43 E3        30.12F
LAKE ELMO      FAIR      59  39  47 N3        30.14S
$$
MNZ001>005-007-008-013>017-022>024-027-028-241600-
   Northwest Minnesota

CITY           SKY/WX    TMP DP  RH WIND       PRES   REMARKS
BEMIDJI        FAIR      42  30  61 N8        30.31S
HALLOCK        FAIR      43  28  56 NW18G24   30.39S
ROSEAU         FAIR      41  30  65 NW13      30.34S
WARROAD        FAIR      39  28  65 NW20      30.34S
THIEF RVR FALL FAIR      43  29  57 NW17      30.36F
CROOKSTON      FAIR      45  34  65 N20       30.38F
FOSSTON        FAIR      43  30  61 N17       30.35R
MOORHEAD       FAIR      43  37  81 N13G18    30.35S
PARK RAPIDS    CLOUDY    40  35  83 N10       30.29F
MAHNOMEN       FAIR      42  35  76 N13       30.33S
$$
MNZ006-009>011-018-025>026-241600-
   North Central Minnesota

CITY           SKY/WX    TMP DP  RH WIND       PRES   REMARKS
BAUDETTE       FAIR      38  26  62 NW16G26   30.31F
FLAG ISLAND    FAIR      34  23  64 N17       30.33R WCI  23
INTL FALLS     FAIR      43  27  53 NW14      30.27S
WASKISH        PTSUNNY   41  30  65 NW7       30.31S
BIG FORK       FAIR      45  28  53 N8        30.28S
LONGVILLE      LGT RAIN  39  36  87 CALM      30.29R
GRAND RAPIDS   LGT RAIN  41  31  67 N12       30.28S
CRANE LAKE     FAIR      41  27  56 NW8       30.27F
ORR            FAIR      43  25  49 NW7       30.24S
COOK           CLOUDY    43  28  56 N8        30.26S
WALKER         CLOUDY    39  33  77 N7        30.30S
$$
MNZ012-019>021-037-241600-
   Northeast Minnesota

CITY           SKY/WX    TMP DP  RH WIND       PRES   REMARKS
DULUTH         CLOUDY    49  30  48 E7        30.21S
ELY            PTSUNNY   45  28  53 CALM      30.23S
HIBBING        CLOUDY    43  29  57 N12       30.24S
EVELETH        FAIR      46  30  53 N6        30.25S
DULUTH HARBOR  CLOUDY    41  34  75 NE7       30.24R
TWO HARBORS    PTSUNNY   54  34  47 E8        30.20S
SILVER BAY     PTSUNNY   52  30  43 NE6       30.19S
GRAND MARAIS     N/A     44  29  55 SW5       30.21S
G MARAIS ARPRT PTSUNNY   43  25  49 N9        30.19S
$$
MNZ029>031-032-039>041-046>048-054>057-064-241600-
   West Central Minnesota

CITY           SKY/WX    TMP DP  RH WIND       PRES   REMARKS
FERGUS FALLS   DRIZZLE   43  37  81 N13       30.30S
WHEATON        DRIZZLE   43  39  87 N13       30.33S
MORRIS         CLOUDY    48  41  76 N23G32    30.26S
ALEXANDRIA     LGT RAIN  46  39  76 N16       30.28R
ELBOW LAKE     DRIZZLE   41  38  90 NE14      30.30F
WADENA         LGT RAIN  41  37  87 N8        30.30S
GLENWOOD       DRIZZLE   46  36  66 N21G28    30.26R
APPLETON       CLOUDY    50  37  62 N21G32    30.24S
BENSON         CLOUDY    52  36  54 NE21G29   30.26S
ORTONVILLE     CLOUDY    46  39  76 N23G35    30.27R
WILLMAR        FAIR      48  36  61 N18G25    30.24S
$$
MNZ033>034-036-042>043-049>051-058-059-241600-
   Central Minnesota

CITY           SKY/WX    TMP DP  RH WIND       PRES   REMARKS
ST CLOUD       CLOUDY    48  34  58 N17G25    30.21R
SAUK CENTRE    FAIR      47  33  58 N18G24    30.25S
PAYNESVILLE    CLOUDY    47  35  62 N14       30.24R
AITKIN         FAIR      45  30  57 N10       30.25R
PINE RIVER     DRIZZLE   39  34  81 N8        30.32R
BRAINERD       LGT RAIN  47  31  53 N16       30.27R
STAPLES        DRIZZLE   43  37  81 N9        30.29R
LONG PRAIRIE   FAIR      45  34  65 NW16G25   30.27R
LITTLE FALLS   CLOUDY    46  23  39 N8        30.26R
LITCHFIELD     PTSUNNY   52  37  58 N16G24    30.21R
BUFFALO        PTSUNNY   55  33  42 N12       30.19R
MAPLE LAKE     PTSUNNY   53  38  57 N12       30.20R
HUTCHINSON     CLOUDY    52  38  60 NW12      30.19R
$$
MNZ037-044-045-052-053-241600-
   East Central Minnesota

CITY           SKY/WX    TMP DP  RH WIND       PRES   REMARKS
PRINCETON      PTSUNNY   54  34  47 N9        30.19S
MORA           FAIR      50  32  50 N7        30.22R
CAMBRIDGE      PTSUNNY   55  37  50 N6        30.18S
RUSH CITY      CLOUDY    55  34  45 N6        30.19R
MOOSE LAKE     PTSUNNY   50  30  46 NW7       30.20R
HINCKLEY       PTSUNNY   52  34  50 N9        30.20R
CLOQUET        CLOUDY    48  28  46 N5        30.22R
MCGREGOR       CLOUDY    45  32  61 N12       30.24S
$$
MNZ071>073-080-081-089-090-097-098-241600-
   Southwest Minnesota

CITY           SKY/WX    TMP DP  RH WIND       PRES   REMARKS
MONTEVIDEO     CLOUDY    50  37  62 NE22G30   30.23R
GRANITE FALLS  CLOUDY    51  39  62 N17G26    30.23R
CANBY          PTSUNNY   47  40  75 N14       30.27R
MARSHALL       CLOUDY    47  41  80 N16       30.23R
REDWOOD FALLS  CLOUDY    50  38  63 N10       30.19R
OLIVIA         PTSUNNY   50  39  66 N14       30.19S
PIPESTONE      MOSUNNY  N/A N/A N/A NE14G24   30.21R
WINDOM         CLOUDY    50  32  50 NW16      30.18R
WORTHINGTON    CLOUDY    45  40  82 N16       30.20R
JACKSON        CLOUDY    54  41  62 NW8       30.18R
TRACY          CLOUDY    47  42  81 N14G20    30.21R
SLAYTON        CLOUDY    43  39  85 NW9       30.21R
$$
MNZ065>067-074>077-082>085-091>093-241600-
   South Central Minnesota

CITY           SKY/WX    TMP DP  RH WIND       PRES   REMARKS
MANKATO        FAIR      57  43  59 W6        30.15S
NEW ULM        CLOUDY    52  39  62 NW15      30.16S
ST JAMES       CLOUDY    54  45  71 NW10      30.17S
FAIRMONT       CLOUDY    53  43  68 NW10      30.17R
GLENCOE        PTSUNNY   54  41  60 N10       30.15S
OWATONNA       FAIR      57  46  67 NW5       30.13S
WASECA         FAIR      57  45  62 W3        30.16S
ALBERT LEA     FAIR      61  37  41 N8        30.14S
$$
MNZ078>079-086>088-094>096-241600-
   Southeast Minnesota

CITY           SKY/WX    TMP DP  RH WIND       PRES   REMARKS
ROCHESTER      FAIR      60  43  53 NW3       30.13S
RED WING       FAIR      59  34  38 CALM      30.11S
STANTON        FAIR      58  44  58 CALM      30.12S
DODGE CENTER   FAIR      61  45  55 NW5       30.13R
WINONA         FAIR      55  37  50 CALM      30.09F
AUSTIN         FAIR      59  43  55 N6        30.13R
PRESTON        FAIR      60  39  45 N5        30.12S
$$
ABBREVIATIONS USED IN REMARKS
   TC - TEMPERATURES IN CELSIUS
  WCI - WIND CHILL INDEX
   HX - HEAT INDEX
  VSB - VISIBILITY
$$




USA.gov is the U.S. government's official web portal to all federal, state and local government web resources and services.